Location: Goheenville
(40.9070°N, 79.3720°W)
Time: 15:56:56
(UTC-04:00)

Cosmos 1727 Rocket - Visible Passes

Search period start: 23 June 2018 00:00
Search period end: 03 July 2018 00:00
Orbit: 961 x 996 km, 82.9° (Epoch: 22 June)

Date Brightness Start Highest point End Pass type
(mag) Time Alt. Az. Time Alt. Az. Time Alt. Az.
23 Jun 5.7 02:41:34 12° SE 02:46:00 25° E 02:50:58 10° NNE visible
23 Jun 4.4 04:26:19 16° SSW 04:31:04 47° WNW 04:37:07 10° N visible
24 Jun 4.8 03:08:02 20° SSE 03:12:02 47° E 03:18:00 10° NNE visible
24 Jun 5.2 04:52:47 11° SW 04:57:42 26° WNW 05:02:53 10° NNW visible
25 Jun 6.3 01:51:55 10° E 01:53:53 12° ENE 01:55:51 10° ENE visible
25 Jun 4.0 03:34:29 26° S 03:38:16 86° E 03:44:34 10° N visible
26 Jun 5.8 02:16:10 14° SE 02:19:42 23° E 02:24:26 10° NE visible
26 Jun 4.3 04:00:54 23° SW 04:04:41 52° WNW 04:10:49 10° N visible
27 Jun 4.9 02:42:34 25° SE 02:45:43 42° E 02:51:34 10° NNE visible
27 Jun 5.1 04:27:20 16° WSW 04:31:17 29° WNW 04:36:40 10° NNW visible
28 Jun 6.4 01:27:13 10° E 01:27:38 10° ENE 01:28:04 10° ENE visible
28 Jun 4.0 03:08:58 34° S 03:11:55 78° E 03:18:13 10° N visible
28 Jun 5.7 04:54:25 10° WSW 04:58:07 16° WNW 05:01:51 10° NNW visible
29 Jun 5.8 01:50:36 15° ESE 01:53:26 21° E 01:57:52 10° NE visible
29 Jun 4.2 03:35:21 31° SW 03:38:17 58° W 03:44:31 10° N visible
30 Jun 5.0 02:16:58 28° SE 02:19:25 38° E 02:25:09 10° NNE visible
30 Jun 5.0 04:01:43 21° WSW 04:04:52 32° WNW 04:10:27 10° NNW visible
01 Jul 4.1 02:43:19 41° SSE 02:45:35 70° E 02:51:51 10° NNE visible
01 Jul 5.7 04:28:04 11° WSW 04:31:39 18° WNW 04:35:48 10° NNW visible
02 Jul 5.8 01:24:55 15° ESE 01:27:10 19° E 01:31:16 10° NE visible
02 Jul 4.1 03:09:39 40° SSW 03:11:56 65° W 03:18:13 10° N visible
